| time (UTC) | temp C | wind direction | speed KPH | gust KPH | rain 1hr cm | rain 24hr cm | rain mn cm | humidity % | barometer mb |
| 20260504193830 | 26 | 169 | 14.5 | 22.5 | 0.00 | 0.00 | 0.00 | 53 | 1010.0 |
| 20260504193005 | 26 | 153 | 11.3 | 22.5 | 0.00 | 0.00 | 0.00 | 50 | 1010.4 |
| 20260504192930 | 26 | 161 | 12.9 | 25.7 | 0.00 | 0.00 | 0.00 | 50 | 1010.2 |
| 20260504192030 | 26 | 164 | 14.5 | 32.2 | 0.00 | 0.00 | 0.00 | 48 | 1010.4 |
| 20260504191607 | 26 | 168 | 8.0 | 25.7 | 0.00 | 0.00 | 0.00 | 51 | 1010.7 |
| 20260504191130 | 26 | 173 | 12.9 | 24.1 | 0.00 | 0.00 | 0.00 | 50 | 1010.5 |
| 20260504190230 | 26 | 168 | 12.9 | 22.5 | 0.00 | 0.00 | 0.00 | 50 | 1010.7 |
| 20260504190106 | 25 | 177 | 9.7 | 22.5 | 0.00 | 0.00 | 0.00 | 51 | 1010.8 |
| 20260504185330 | 26 | 170 | 12.9 | 24.1 | 0.00 | 0.00 | 0.00 | 52 | 1010.7 |
| 20260504184603 | 25 | 153 | 14.5 | 24.1 | 0.00 | 0.00 | 0.00 | 48 | 1011.0 |
| 20260504184430 | 26 | 170 | 12.9 | 24.1 | 0.00 | 0.00 | 0.00 | 48 | 1011.0 |
| 20260504183530 | 26 | 174 | 12.9 | 27.4 | 0.00 | 0.00 | 0.00 | 49 | 1011.1 |
| 20260504183009 | 25 | 173 | 17.7 | 30.6 | 0.00 | 0.00 | 0.00 | 49 | 1011.3 |
| 20260504182630 | 26 | 174 | 11.3 | 24.1 | 0.00 | 0.00 | 0.00 | 51 | 1011.2 |
| 20260504181730 | 25 | 179 | 12.9 | 25.7 | 0.00 | 0.00 | 0.00 | 48 | 1011.4 |
| 20260504181504 | 25 | 162 | 14.5 | 25.7 | 0.00 | 0.00 | 0.00 | 48 | 1011.6 |
| 20260504180830 | 25 | 175 | 14.5 | 30.6 | 0.00 | 0.00 | 0.00 | 49 | 1011.5 |
| 20260504180006 | 25 | 169 | 16.1 | 29.0 | 0.00 | 0.00 | 0.00 | 50 | 1011.7 |
| 20260504175930 | 25 | 174 | 14.5 | 27.4 | 0.00 | 0.00 | 0.00 | 49 | 1011.5 |
| 20260504175030 | 25 | 179 | 11.3 | 22.5 | 0.00 | 0.00 | 0.00 | 50 | 1011.7 |
| 20260504174504 | 25 | 191 | 6.4 | 24.1 | 0.00 | 0.00 | 0.00 | 50 | 1012.1 |
| 20260504174130 | 25 | 176 | 12.9 | 22.5 | 0.00 | 0.00 | 0.00 | 48 | 1011.8 |
| 20260504173230 | 25 | 188 | 9.7 | 19.3 | 0.00 | 0.00 | 0.00 | 50 | 1012.0 |
| 20260504173007 | 25 | 213 | 9.7 | 22.5 | 0.00 | 0.00 | 0.00 | 48 | 1012.3 |
| 20260504172330 | 25 | 170 | 12.9 | 29.0 | 0.00 | 0.00 | 0.00 | 50 | 1012.1 |
| 20260504171510 | 25 | 167 | 9.7 | 25.7 | 0.00 | 0.00 | 0.00 | 52 | 1012.4 |
| 20260504171430 | 25 | 179 | 11.3 | 25.7 | 0.00 | 0.00 | 0.00 | 53 | 1012.2 |
| 20260504170530 | 25 | 175 | 16.1 | 30.6 | 0.00 | 0.00 | 0.00 | 51 | 1012.2 |
| 20260504170106 | 24 | 193 | 16.1 | 32.2 | 0.00 | 0.00 | 0.00 | 51 | 1012.3 |
| 20260504160230 | 23 | 182 | 8.0 | 20.9 | 0.00 | 0.00 | 0.00 | 53 | 1013.0 |
| 20260504160107 | 23 | 219 | 6.4 | 20.9 | 0.00 | 0.00 | 0.00 | 59 | 1013.1 |
| 20260504150830 | 22 | 186 | 8.0 | 22.5 | 0.00 | 0.00 | 0.00 | 57 | 1013.1 |
| 20260504150105 | 21 | 159 | 8.0 | 19.3 | 0.00 | 0.00 | 0.00 | 59 | 1013.2 |
| 20260504140530 | 19 | 177 | 8.0 | 16.1 | 0.00 | 0.00 | 0.00 | 69 | 1013.1 |
| 20260504130230 | 14 | 172 | 1.6 | 4.8 | 0.00 | 0.00 | 0.00 | 88 | 1013.2 |
| 20260504120104 | 12 | 311 | 0.0 | 3.2 | 0.00 | 0.00 | 0.00 | 88 | 1013.2 |
| 20260504110530 | 12 | 0 | 0.0 | 0.0 | 0.00 | 0.00 | 0.00 | 88 | 1012.3 |
| 20260504100230 | 12 | 0 | 0.0 | 0.0 | 0.00 | 0.00 | 0.00 | 88 | 1012.5 |
| 20260504090105 | 12 | 183 | 0.0 | 0.0 | 0.00 | 0.00 | 0.00 | 88 | 1012.9 |
| 20260504081604 | 12 | 183 | 0.0 | 0.0 | 0.00 | 0.00 | 0.00 | 86 | 1013.0 |
| 20260504081430 | 12 | 0 | 0.0 | 0.0 | 0.00 | 0.00 | 0.00 | 86 | 1012.8 |
| 20260504080530 | 13 | 0 | 0.0 | 0.0 | 0.00 | 0.00 | 0.00 | 85 | 1012.9 |
| 20260504070230 | 13 | 0 | 0.0 | 0.0 | 0.00 | 0.00 | 0.00 | 83 | 1013.7 |
| 20260504050530 | 15 | 0 | 0.0 | 0.0 | 0.00 | 0.00 | 0.00 | 81 | 1014.5 |
| 20260504050011 | 14 | 183 | 0.0 | 0.0 | 0.00 | 0.00 | 0.00 | 81 | 1014.6 |
| 20260504045630 | 15 | 0 | 0.0 | 0.0 | 0.00 | 0.00 | 0.00 | 81 | 1014.4 |
| 20260504044603 | 15 | 183 | 0.0 | 3.2 | 0.00 | 0.00 | 0.00 | 80 | 1014.6 |
| 20260504043003 | 15 | 183 | 0.0 | 3.2 | 0.00 | 0.00 | 0.00 | 79 | 1014.7 |
| 20260504042930 | 15 | 184 | 1.6 | 3.2 | 0.00 | 0.00 | 0.00 | 79 | 1014.4 |
| 20260504042030 | 15 | 184 | 1.6 | 3.2 | 0.00 | 0.00 | 0.00 | 79 | 1014.5 |
| 20260504041505 | 15 | 183 | 1.6 | 3.2 | 0.00 | 0.00 | 0.00 | 78 | 1014.8 |
| 20260504041130 | 16 | 184 | 0.0 | 1.6 | 0.00 | 0.00 | 0.00 | 77 | 1014.6 |
| 20260504040230 | 16 | 0 | 0.0 | 0.0 | 0.00 | 0.00 | 0.00 | 76 | 1014.6 |
| 20260504040103 | 16 | 183 | 0.0 | 0.0 | 0.00 | 0.00 | 0.00 | 76 | 1014.9 |
| 20260504035330 | 16 | 0 | 0.0 | 0.0 | 0.00 | 0.00 | 0.00 | 75 | 1014.6 |
| 20260504034503 | 16 | 183 | 0.0 | 0.0 | 0.00 | 0.00 | 0.00 | 75 | 1014.8 |
| 20260504034430 | 16 | 0 | 0.0 | 0.0 | 0.00 | 0.00 | 0.00 | 75 | 1014.6 |
| 20260504033530 | 16 | 0 | 0.0 | 0.0 | 0.00 | 0.00 | 0.00 | 75 | 1014.5 |
| 20260504033003 | 16 | 183 | 0.0 | 0.0 | 0.00 | 0.00 | 0.00 | 75 | 1014.8 |
| 20260504032629 | 16 | 0 | 0.0 | 0.0 | 0.00 | 0.00 | 0.00 | 75 | 1014.5 |
| 20260504031604 | 16 | 183 | 0.0 | 0.0 | 0.00 | 0.00 | 0.00 | 74 | 1014.7 |
| 20260504030830 | 17 | 184 | 0.0 | 3.2 | 0.00 | 0.00 | 0.00 | 73 | 1014.5 |
| 20260504030013 | 17 | 183 | 0.0 | 1.6 | 0.00 | 0.00 | 0.00 | 73 | 1014.8 |
| 20260504025930 | 17 | 184 | 0.0 | 3.2 | 0.00 | 0.00 | 0.00 | 73 | 1014.5 |
| 20260504025030 | 17 | 184 | 1.6 | 3.2 | 0.00 | 0.00 | 0.00 | 72 | 1014.6 |
| 20260504024603 | 17 | 183 | 0.0 | 3.2 | 0.00 | 0.00 | 0.00 | 71 | 1014.8 |
| 20260504024129 | 18 | 184 | 0.0 | 3.2 | 0.00 | 0.00 | 0.00 | 70 | 1014.4 |
| 20260504023230 | 18 | 184 | 1.6 | 3.2 | 0.00 | 0.00 | 0.00 | 69 | 1014.3 |
| 20260504023103 | 18 | 183 | 1.6 | 3.2 | 0.00 | 0.00 | 0.00 | 69 | 1014.7 |
| 20260504022330 | 19 | 184 | 0.0 | 3.2 | 0.00 | 0.00 | 0.00 | 66 | 1014.4 |
| 20260504021602 | 19 | 183 | 0.0 | 3.2 | 0.00 | 0.00 | 0.00 | 66 | 1014.6 |
| 20260504020529 | 20 | 184 | 0.0 | 1.6 | 0.00 | 0.00 | 0.00 | 64 | 1014.2 |
| 20260504020004 | 20 | 183 | 0.0 | 1.6 | 0.00 | 0.00 | 0.00 | 63 | 1014.4 |
| 20260504015629 | 20 | 184 | 0.0 | 1.6 | 0.00 | 0.00 | 0.00 | 63 | 1014.0 |
| 20260504014730 | 21 | 0 | 0.0 | 0.0 | 0.00 | 0.00 | 0.00 | 61 | 1013.9 |
| 20260504014505 | 21 | 183 | 0.0 | 1.6 | 0.00 | 0.00 | 0.00 | 60 | 1014.2 |
| 20260504013829 | 21 | 184 | 0.0 | 1.6 | 0.00 | 0.00 | 0.00 | 59 | 1013.9 |
| 20260504013014 | 22 | 183 | 0.0 | 0.0 | 0.00 | 0.00 | 0.00 | 57 | 1014.2 |
| 20260504012029 | 22 | 184 | 0.0 | 1.6 | 0.00 | 0.00 | 0.00 | 56 | 1013.9 |
| 20260504011502 | 22 | 183 | 0.0 | 1.6 | 0.00 | 0.00 | 0.00 | 54 | 1014.1 |
| 20260504011130 | 23 | 184 | 0.0 | 3.2 | 0.00 | 0.00 | 0.00 | 53 | 1013.8 |
| 20260504010229 | 23 | 184 | 0.0 | 1.6 | 0.00 | 0.00 | 0.00 | 52 | 1013.7 |
| 20260504005329 | 23 | 184 | 0.0 | 3.2 | 0.00 | 0.00 | 0.00 | 52 | 1013.7 |
| 20260504004505 | 23 | 183 | 0.0 | 6.4 | 0.00 | 0.00 | 0.00 | 51 | 1013.9 |
| 20260504004430 | 23 | 186 | 1.6 | 6.4 | 0.00 | 0.00 | 0.00 | 51 | 1013.6 |
| 20260504003005 | 24 | 175 | 1.6 | 8.0 | 0.00 | 0.00 | 0.00 | 50 | 1014.0 |
| 20260504002630 | 24 | 184 | 1.6 | 4.8 | 0.00 | 0.00 | 0.00 | 50 | 1013.7 |
| 20260504001729 | 25 | 165 | 1.6 | 4.8 | 0.00 | 0.00 | 0.00 | 49 | 1013.7 |
| 20260504001503 | 24 | 182 | 1.6 | 8.0 | 0.00 | 0.00 | 0.00 | 49 | 1014.0 |
| 20260504000829 | 25 | 176 | 3.2 | 11.3 | 0.00 | 0.00 | 0.00 | 48 | 1013.7 |
| 20260504000002 | 25 | 159 | 3.2 | 11.3 | 0.00 | 0.00 | 0.00 | 48 | 1014.0 |
| 20260503235929 | 25 | 179 | 3.2 | 11.3 | 0.00 | 0.00 | 0.00 | 48 | 1013.7 |
| 20260503235029 | 25 | 174 | 4.8 | 12.9 | 0.00 | 0.00 | 0.00 | 46 | 1013.9 |
| 20260503234503 | 25 | 173 | 3.2 | 11.3 | 0.00 | 0.00 | 0.00 | 46 | 1014.2 |
| 20260503234129 | 26 | 175 | 6.4 | 12.9 | 0.00 | 0.00 | 0.00 | 46 | 1013.8 |
| 20260503233229 | 26 | 178 | 6.4 | 16.1 | 0.00 | 0.00 | 0.00 | 44 | 1013.9 |
| 20260503233006 | 26 | 213 | 8.0 | 16.1 | 0.00 | 0.00 | 0.00 | 44 | 1014.2 |
| 20260503232329 | 26 | 176 | 8.0 | 16.1 | 0.00 | 0.00 | 0.00 | 43 | 1013.8 |
| 20260503231505 | 26 | 167 | 6.4 | 17.7 | 0.00 | 0.00 | 0.00 | 44 | 1014.2 |
| 20260503231429 | 26 | 177 | 8.0 | 17.7 | 0.00 | 0.00 | 0.00 | 43 | 1013.9 |
| 20260503230529 | 27 | 181 | 6.4 | 16.1 | 0.00 | 0.00 | 0.00 | 44 | 1013.9 |
| 20260503230002 | 27 | 155 | 6.4 | 14.5 | 0.00 | 0.00 | 0.00 | 43 | 1014.2 |
| 20260503225629 | 27 | 183 | 6.4 | 14.5 | 0.00 | 0.00 | 0.00 | 43 | 1013.9 |
| 20260503224729 | 27 | 189 | 6.4 | 12.9 | 0.00 | 0.00 | 0.00 | 40 | 1014.0 |
| 20260503224504 | 27 | 150 | 6.4 | 12.9 | 0.00 | 0.00 | 0.00 | 41 | 1014.3 |
| 20260503223829 | 27 | 226 | 3.2 | 9.7 | 0.00 | 0.00 | 0.00 | 41 | 1014.1 |
| 20260503223006 | 27 | 120 | 0.0 | 9.7 | 0.00 | 0.00 | 0.00 | 43 | 1014.3 |
| 20260503222929 | 27 | 183 | 4.8 | 9.7 | 0.00 | 0.00 | 0.00 | 41 | 1014.1 |
| 20260503222029 | 27 | 190 | 6.4 | 19.3 | 0.00 | 0.00 | 0.00 | 42 | 1014.2 |
| 20260503221510 | 27 | 167 | 3.2 | 14.5 | 0.00 | 0.00 | 0.00 | 41 | 1014.5 |
| 20260503221129 | 27 | 184 | 6.4 | 14.5 | 0.00 | 0.00 | 0.00 | 41 | 1014.2 |
| 20260503220229 | 28 | 171 | 6.4 | 19.3 | 0.00 | 0.00 | 0.00 | 39 | 1014.2 |
| 20260503220104 | 28 | 121 | 8.0 | 19.3 | 0.00 | 0.00 | 0.00 | 38 | 1014.5 |
| 20260503215329 | 28 | 192 | 6.4 | 12.9 | 0.00 | 0.00 | 0.00 | 38 | 1014.2 |
| 20260503214508 | 27 | 215 | 4.8 | 16.1 | 0.00 | 0.00 | 0.00 | 45 | 1014.6 |
| 20260503214429 | 28 | 182 | 6.4 | 16.1 | 0.00 | 0.00 | 0.00 | 42 | 1014.3 |
| 20260503213529 | 28 | 167 | 8.0 | 19.3 | 0.00 | 0.00 | 0.00 | 43 | 1014.5 |
| 20260503213007 | 27 | 168 | 9.7 | 19.3 | 0.00 | 0.00 | 0.00 | 45 | 1014.8 |
| 20260503212629 | 27 | 179 | 8.0 | 14.5 | 0.00 | 0.00 | 0.00 | 42 | 1014.6 |
| 20260503211729 | 28 | 183 | 6.4 | 19.3 | 0.00 | 0.00 | 0.00 | 44 | 1014.7 |
| 20260503211607 | 28 | 172 | 4.8 | 20.9 | 0.00 | 0.00 | 0.00 | 41 | 1015.1 |
| 20260503210829 | 28 | 181 | 4.8 | 11.3 | 0.00 | 0.00 | 0.00 | 40 | 1014.9 |
| 20260503210106 | 28 | 198 | 3.2 | 16.1 | 0.00 | 0.00 | 0.00 | 42 | 1015.3 |
| 20260503205929 | 28 | 185 | 6.4 | 20.9 | 0.00 | 0.00 | 0.00 | 43 | 1015.0 |
| 20260503205029 | 28 | 177 | 6.4 | 20.9 | 0.00 | 0.00 | 0.00 | 40 | 1015.2 |
| 20260503204504 | 27 | 148 | 3.2 | 14.5 | 0.00 | 0.00 | 0.00 | 42 | 1015.7 |
| 20260503203229 | 28 | 191 | 6.4 | 14.5 | 0.00 | 0.00 | 0.00 | 43 | 1015.7 |
| 20260503203008 | 27 | 210 | 8.0 | 12.9 | 0.00 | 0.00 | 0.00 | 41 | 1016.1 |
| 20260503202329 | 28 | 192 | 6.4 | 19.3 | 0.00 | 0.00 | 0.00 | 41 | 1016.0 |
| 20260503201605 | 27 | 157 | 1.6 | 19.3 | 0.00 | 0.00 | 0.00 | 43 | 1016.4 |
| 20260503201429 | 28 | 184 | 8.0 | 14.5 | 0.00 | 0.00 | 0.00 | 44 | 1016.1 |
| 20260503200529 | 28 | 230 | 4.8 | 14.5 | 0.00 | 0.00 | 0.00 | 41 | 1016.2 |
| 20260503200107 | 28 | 51 | 3.2 | 14.5 | 0.00 | 0.00 | 0.00 | 43 | 1016.7 |
| 20260503195629 | 28 | 171 | 6.4 | 12.9 | 0.00 | 0.00 | 0.00 | 42 | 1016.4 |
| 20260503194729 | 27 | 224 | 4.8 | 17.7 | 0.00 | 0.00 | 0.00 | 45 | 1016.6 |
| 20260503194507 | 27 | 254 | 4.8 | 17.7 | 0.00 | 0.00 | 0.00 | 42 | 1016.9 |